Wind_Speed
26 26 26 26 26 25 24 24 24 24 23 23 24 24 23 24 24 25 22 20 20 21 20 20 20 20 20 19 19 18 18 17 17 16 15 15 15 15 15 15 14 14 14 14 13 13 13 13 13
27 27 28 27 27 25 23 24 25 25 24 24 24 24 25 25 25 24 23 22 22 22 22 22 22 21 21 21 20 20 19 19 19 18 17 16 16 16 16 16 16 16 16 15 15 15 15 15 14
29 29 29 28 27 25 24 26 26 25 25 25 25 25 26 26 24 24 23 23 23 23 23 23 23 23 22 22 22 21 21 20 20 19 19 18 18 18 17 18 18 17 17 17 17 17 17 16 16
30 30 30 29 27 26 27 28 26 26 26 26 26 26 27 26 24 25 25 24 24 24 24 24 24 23 23 23 23 23 22 22 22 21 21 20 20 20 20 20 20 20 19 19 19 19 19 18 18
31 31 31 29 27 28 29 29 28 28 28 27 27 27 27 26 26 27 26 26 25 24 25 24 24 24 24 24 24 24 24 24 24 23 23 23 22 22 22 22 22 21 21 21 21 21 21 20 20
32 33 32 30 29 30 30 30 29 29 29 29 29 29 28 28 28 28 28 28 27 26 26 25 25 25 25 25 25 25 25 25 25 24 24 24 24 23 23 23 23 23 24 23 23 23 23 23 22
34 34 33 31 31 31 32 31 30 30 30 30 30 31 29 29 29 29 29 29 28 28 28 27 27 26 26 26 25 25 25 25 25 25 25 24 24 24 24 24 24 24 25 25 25 25 25 25 24
35 35 34 32 32 33 33 32 31 31 31 30 31 32 30 30 30 30 30 30 29 30 29 28 28 27 27 27 26 26 26 26 26 26 26 26 26 26 25 25 26 26 26 26 26 26 26 26 26
36 36 33 33 34 35 34 32 32 31 31 31 31 31 30 30 31 31 31 31 30 30 30 30 29 29 29 29 28 27 27 27 27 27 27 27 27 27 27 27 27 27 27 27 27 27 27 27 27
37 36 34 34 35 35 33 33 33 32 32 31 31 32 31 31 32 32 31 31 31 31 31 31 31 31 31 30 30 29 29 29 29 29 28 28 29 29 29 29 29 29 29 29 29 29 29 29 30
38 36 35 36 36 35 34 34 34 33 32 32 32 32 32 32 32 32 32 32 32 32 32 32 32 32 32 32 31 31 31 31 31 31 31 31 31 31 31 31 31 31 31 32 32 32 32 33 33
38 38 37 37 37 36 36 35 35 34 33 33 33 33 32 32 32 33 33 32 32 32 32 33 33 33 33 33 33 32 32 32 32 33 33 33 33 33 33 33 33 33 33 34 34 34 35 35 35
39 38 38 38 37 37 37 37 36 34 33 34 33 33 32 32 32 32 32 32 32 32 33 33 33 33 34 34 34 34 34 34 34 34 34 34 34 34 35 35 35 35 35 35 36 36 37 37 38
40 39 39 38 38 37 37 37 36 33 34 34 34 33 32 32 32 32 32 32 32 32 33 33 33 34 34 35 35 35 35 36 36 36 36 36 35 35 35 36 37 37 37 37 38 38 38 39 39
40 40 40 39 38 38 38 37 36 34 35 35 34 33 33 33 33 33 33 32 32 32 33 33 33 34 35 35 36 36 36 36 36 36 36 36 37 37 37 37 38 38 38 39 39 40 40 40 41
41 41 40 39 39 39 39 37 35 36 36 36 35 34 34 34 34 34 33 33 33 33 33 34 34 35 35 35 36 36 37 37 37 37 37 37 38 38 38 39 39 39 40 40 41 41 42 42 42
42 41 40 39 40 40 40 38 36 37 37 37 36 36 36 36 35 35 35 35 35 34 34 35 35 36 36 36 37 37 37 38 38 39 39 39 39 39 39 40 40 40 41 41 42 42 43 43 43
42 42 42 41 41 41 41 39 38 38 38 38 38 37 37 37 36 36 36 36 35 35 35 36 36 36 37 38 38 38 38 38 39 39 39 40 40 40 40 41 41 42 42 43 43 44 44 45 45
43 43 44 44 43 43 42 41 40 40 39 39 38 39 38 38 38 38 37 36 36 36 36 36 37 37 37 38 39 39 39 39 40 40 40 41 41 42 42 42 43 43 44 44 45 45 46 46 47
43 44 45 45 44 45 44 43 42 41 40 40 39 39 39 39 39 38 38 37 37 37 37 37 37 38 38 39 40 40 41 41 41 42 42 43 43 44 44 44 44 45 45 45 46 47 47 48 49
44 44 44 45 45 46 47 46 44 42 42 41 41 40 40 40 40 39 39 38 38 38 38 38 39 39 40 40 41 41 41 42 43 43 44 44 44 45 45 46 46 46 46 47 48 49 49 49 50
44 44 44 45 46 47 47 48 46 44 43 43 42 42 41 41 41 40 40 39 40 40 40 40 41 41 41 41 41 42 42 43 43 44 45 45 45 46 47 47 47 48 48 49 49 50 50 51 51
44 44 44 45 46 48 48 49 47 45 44 43 43 42 42 42 42 42 41 41 41 41 41 42 42 42 42 42 43 43 44 44 45 45 46 46 47 47 48 49 49 49 50 50 50 51 51 52 52
44 43 43 44 45 48 47 48 49 46 44 43 42 42 42 43 43 42 42 42 42 42 42 43 43 43 43 44 44 45 45 46 46 46 47 47 47 48 49 49 50 50 50 51 51 52 52 53 53
44 44 44 45 46 48 46 48 49 46 44 43 42 42 42 42 43 43 43 43 43 43 43 44 44 44 44 45 45 46 46 47 47 48 48 48 48 49 48 49 50 50 51 52 52 52 53 54 54
44 44 45 45 46 46 45 47 48 46 44 44 42 42 42 42 42 43 43 44 44 44 44 44 44 44 44 45 45 46 47 48 48 49 50 50 50 50 50 50 50 51 51 52 52 53 54 54 54
44 45 44 44 44 45 46 46 46 45 45 44 43 42 42 42 42 42 43 43 44 44 44 44 44 44 44 45 46 47 47 48 49 50 50 50 50 50 51 50 50 51 52 52 54 54 54 53 53
44 43 44 45 45 43 44 44 44 45 45 45 43 42 42 42 42 42 43 43 43 43 43 43 43 44 44 45 46 47 48 48 49 49 49 50 51 51 51 50 51 51 53 54 54 54 54 54 53
43 44 45 45 46 45 43 43 43 44 44 44 43 42 42 41 41 41 41 42 42 43 43 43 44 44 45 45 46 46 47 47 47 47 48 49 50 50 50 50 51 52 53 53 54 54 54 54 54
41 42 43 43 44 45 44 43 42 42 43 44 43 42 41 41 41 41 41 41 41 42 42 43 43 44 45 45 46 47 46 46 46 46 47 47 48 49 50 50 51 52 53 53 54 54 54 53 53
Wind_Direction
237 239 239 240 241 243 242 241 242 241 241 241 242 243 244 245 246 248 249 247 244 243 243 243 243 244 245 246 247 247 248 248 248 248 247 248 250 251 250 252 253 254 257 259 260 260 261 263 265
237 238 239 240 241 242 241 241 242 242 242 242 243 243 244 245 246 248 248 246 245 244 244 243 244 245 246 246 247 248 249 250 251 251 250 250 252 253 252 253 255 255 257 260 261 262 263 264 266
237 238 239 240 241 241 241 242 242 243 243 242 242 243 243 245 246 248 248 246 245 245 245 244 245 246 247 247 247 249 250 251 252 252 252 252 253 254 255 255 256 256 258 260 261 263 264 265 266
238 239 239 240 240 240 241 243 243 244 243 243 243 243 244 246 246 247 247 246 245 245 245 245 246 247 247 248 249 250 251 251 252 253 253 253 254 255 256 257 258 258 259 261 261 262 263 265 266
239 239 240 240 240 240 242 244 244 244 244 244 244 244 245 245 245 246 247 247 246 246 246 246 247 247 248 249 250 252 252 253 254 254 255 255 256 256 258 258 259 259 261 262 263 263 264 265 267
240 240 241 240 239 240 241 243 244 244 245 245 245 245 245 245 245 246 247 247 247 247 248 248 248 248 249 251 252 253 254 254 255 255 256 257 258 258 259 260 260 260 261 263 264 264 265 266 267
240 240 240 240 239 240 241 242 243 245 245 245 246 247 245 245 245 246 247 247 247 247 247 248 249 249 250 252 252 253 254 255 255 256 256 257 258 259 260 261 261 262 262 263 264 265 266 267 267
241 241 240 240 240 240 241 241 243 244 246 246 246 247 245 247 246 246 247 247 247 247 248 248 249 250 250 251 252 253 254 255 256 256 257 258 259 260 261 262 263 263 264 264 265 266 267 268 268
241 241 240 239 239 240 241 241 243 244 245 246 247 247 246 247 247 247 247 248 248 248 249 249 249 250 251 252 253 254 255 256 256 257 258 259 260 260 261 262 263 264 265 265 266 266 268 268 269
241 242 240 239 239 240 241 241 242 243 245 246 247 248 247 247 248 248 248 248 249 249 250 250 251 252 253 254 254 255 256 256 257 259 259 260 261 262 262 263 264 265 266 266 266 267 268 268 269
241 241 239 239 239 240 240 241 242 242 244 246 247 248 247 247 248 248 248 249 249 250 251 252 252 253 253 254 255 256 257 258 259 260 260 261 262 263 264 264 265 266 267 267 267 267 267 268 269
241 241 240 240 240 240 240 240 242 242 244 246 247 247 248 248 248 248 249 249 250 252 253 253 253 253 254 255 255 256 257 258 259 260 261 262 263 263 264 264 265 266 267 268 268 268 268 269 270
241 240 240 240 241 241 241 241 242 242 244 246 246 246 246 246 247 248 249 250 251 252 253 254 255 255 255 256 256 258 259 260 261 262 263 264 264 264 265 265 266 267 268 269 270 270 270 270 271
241 241 240 240 241 241 241 241 242 241 243 244 245 246 245 246 247 248 249 251 251 252 253 254 255 256 256 257 257 258 259 260 262 263 264 265 266 266 266 267 267 268 269 270 271 272 272 272 272
241 241 240 240 240 241 241 240 241 241 242 244 245 246 246 246 248 249 250 251 252 253 254 254 255 256 257 258 258 259 260 262 263 264 265 266 266 267 267 268 269 270 270 271 272 273 274 274 274
241 241 241 240 240 240 241 240 241 241 242 243 245 245 245 246 248 249 251 252 253 254 254 255 256 257 258 259 260 261 261 262 263 264 265 266 267 268 268 270 270 271 271 272 273 274 275 275 275
241 241 241 240 240 240 241 241 240 241 243 244 245 246 247 248 249 250 252 253 254 255 256 257 258 258 259 260 261 262 263 263 264 265 265 266 267 268 269 270 271 272 273 273 274 275 275 275 275
243 243 242 242 241 241 242 242 241 242 243 244 245 247 248 249 251 252 253 254 255 256 256 257 258 260 261 261 263 264 264 265 265 265 266 267 267 268 270 270 271 273 274 275 275 276 276 276 277
244 244 243 242 243 243 242 242 242 243 244 245 246 247 248 249 251 252 253 254 255 256 257 257 258 260 262 262 263 264 265 265 266 266 266 266 268 269 270 271 272 274 275 276 276 277 277 278 278
244 245 245 244 244 245 244 243 243 243 245 246 247 247 248 249 250 252 254 255 256 257 258 259 260 261 263 264 264 265 265 265 266 267 267 267 268 270 271 273 274 275 276 276 277 277 278 279 279
243 244 245 246 245 246 246 245 244 244 245 246 247 248 249 250 251 253 254 255 257 258 258 260 260 262 263 265 265 266 266 266 266 267 268 268 269 271 272 273 274 275 276 277 278 278 279 279 279
244 244 245 246 246 246 246 247 244 245 246 247 248 249 250 251 252 254 256 256 257 258 259 260 261 263 264 266 266 266 266 267 267 268 268 269 270 271 272 273 275 276 277 278 278 279 279 280 280
243 244 245 246 246 247 246 248 245 245 247 247 248 249 250 252 253 255 256 258 258 259 260 261 262 264 265 266 266 266 267 267 267 268 268 269 269 271 272 273 275 276 277 278 278 279 279 280 280
242 242 243 245 246 247 246 248 247 246 247 248 248 249 250 252 254 256 257 258 259 260 261 262 263 264 265 266 266 266 267 268 268 269 269 269 271 272 273 274 275 277 278 279 280 280 280 280 281
241 242 243 244 245 247 246 248 249 248 248 249 249 250 252 253 255 256 257 258 260 261 262 263 265 265 265 265 266 266 267 268 268 269 270 269 270 271 272 274 275 277 278 279 280 280 280 281 281
241 241 243 245 247 249 248 249 249 250 251 251 251 252 253 254 255 256 258 259 261 262 264 264 264 264 265 266 267 267 268 268 268 269 270 269 270 272 272 273 275 278 279 280 281 281 281 282 282
239 240 241 244 247 248 249 250 249 250 252 252 252 253 254 255 256 258 259 260 262 263 264 263 263 264 266 267 268 269 269 269 269 270 269 269 271 271 272 274 276 277 278 280 281 281 282 282 281
239 240 239 240 243 246 248 250 251 250 252 253 253 253 254 256 258 259 260 262 263 264 263 263 263 264 265 267 268 269 269 270 270 269 268 269 270 271 272 274 276 277 279 280 281 282 283 282 282
238 238 239 240 242 244 247 249 250 252 252 253 254 254 256 257 258 259 260 261 262 263 263 263 263 265 266 267 268 269 270 270 270 269 268 270 271 271 273 275 276 278 279 281 281 282 282 282 282
238 238 238 239 241 243 245 248 250 252 254 255 256 257 257 257 258 259 260 261 261 262 263 264 264 265 267 268 269 270 270 269 269 268 270 271 271 272 274 275 277 278 280 281 282 283 282 282 282
Height
5798 5800 5802 5805 5807 5809 5812 5814 5815 5817 5819 5822 5823 5825 5827 5829 5831 5834 5835 5837 5838 5840 5841 5842 5844 5846 5847 5849 5850 5851 5853 5854 5855 5856 5857 5858 5859 5860 5861 5862 5862 5863 5864 5864 5865 5865 5866 5866 5867
5794 5796 5798 5800 5802 5805 5809 5810 5811 5813 5816 5818 5820 5821 5823 5824 5826 5829 5831 5833 5834 5836 5838 5839 5841 5842 5844 5845 5847 5848 5850 5851 5852 5853 5854 5855 5856 5857 5858 5859 5860 5861 5861 5862 5863 5863 5864 5864 5864
5789 5791 5794 5796 5798 5802 5804 5804 5806 5809 5811 5813 5815 5817 5819 5821 5823 5825 5827 5829 5831 5833 5834 5836 5837 5839 5840 5842 5843 5845 5846 5848 5849 5850 5852 5853 5854 5854 5855 5856 5857 5858 5859 5859 5860 5860 5861 5861 5862
5784 5786 5789 5792 5795 5797 5798 5799 5802 5804 5806 5809 5811 5813 5815 5818 5820 5821 5823 5825 5827 5829 5830 5832 5833 5835 5837 5838 5840 5841 5843 5844 5845 5847 5848 5849 5850 5851 5852 5853 5854 5855 5855 5856 5857 5857 5858 5858 5859
5778 5781 5784 5786 5790 5791 5793 5794 5797 5799 5802 5804 5806 5808 5811 5813 5815 5817 5818 5820 5823 5825 5826 5828 5829 5831 5833 5834 5836 5837 5839 5840 5842 5843 5844 5845 5846 5847 5848 5849 5850 5851 5852 5853 5853 5854 5854 5855 5855
5773 5775 5778 5782 5784 5786 5788 5790 5792 5794 5796 5799 5801 5803 5806 5808 5810 5812 5814 5816 5818 5820 5822 5824 5825 5827 5829 5830 5832 5833 5835 5836 5837 5839 5840 5841 5842 5843 5844 5845 5846 5847 5848 5849 5849 5850 5850 5851 5851
5767 5769 5772 5776 5778 5780 5782 5784 5786 5789 5791 5794 5795 5798 5801 5803 5805 5807 5809 5811 5813 5815 5817 5819 5821 5822 5824 5826 5827 5829 5830 5832 5833 5834 5835 5837 5838 5839 5840 5841 5842 5843 5843 5844 5845 5845 5846 5846 5847
5760 5763 5766 5769 5772 5774 5776 5778 5781 5783 5785 5788 5790 5792 5796 5798 5800 5802 5804 5806 5808 5810 5812 5814 5816 5818 5819 5821 5823 5824 5825 5827 5828 5829 5831 5832 5833 5834 5835 5836 5837 5838 5839 5840 5840 5841 5841 5841 5842
5753 5757 5761 5763 5765 5767 5770 5773 5775 5777 5780 5782 5784 5786 5790 5792 5794 5796 5798 5801 5803 5805 5807 5808 5811 5813 5814 5816 5818 5819 5820 5822 5823 5824 5826 5827 5828 5829 5830 5831 5832 5833 5834 5835 5835 5836 5836 5836 5837
5746 5750 5754 5756 5758 5760 5764 5767 5769 5772 5774 5776 5778 5780 5784 5786 5788 5790 5793 5795 5797 5799 5801 5803 5805 5807 5809 5811 5812 5814 5815 5816 5818 5819 5821 5822 5823 5824 5825 5826 5827 5827 5828 5829 5830 5830 5831 5831 5831
5739 5743 5746 5748 5751 5754 5757 5760 5762 5766 5768 5770 5772 5775 5777 5780 5782 5784 5786 5789 5791 5793 5795 5797 5799 5801 5803 5805 5806 5808 5809 5811 5812 5814 5815 5816 5817 5818 5819 5820 5821 5821 5822 5823 5823 5824 5824 5825 5825
5732 5736 5738 5741 5744 5747 5750 5753 5756 5759 5762 5764 5766 5769 5771 5774 5776 5778 5780 5783 5785 5787 5789 5790 5792 5794 5796 5798 5800 5801 5803 5805 5806 5807 5809 5810 5811 5812 5813 5813 5814 5815 5816 5816 5817 5817 5817 5818 5818
5724 5728 5730 5733 5736 5740 5743 5746 5749 5753 5755 5757 5759 5762 5765 5767 5769 5771 5774 5776 5779 5781 5782 5784 5786 5788 5790 5791 5793 5795 5796 5798 5799 5801 5802 5803 5804 5805 5806 5806 5807 5808 5809 5809 5809 5810 5810 5810 5810
5716 5719 5722 5726 5729 5732 5735 5739 5742 5747 5748 5750 5752 5755 5758 5761 5763 5765 5767 5770 5772 5774 5776 5777 5779 5781 5782 5784 5786 5788 5789 5790 5792 5793 5794 5795 5796 5797 5798 5799 5800 5800 5801 5801 5801 5802 5802 5802 5802
5707 5711 5714 5718 5721 5724 5727 5731 5735 5739 5740 5743 5746 5749 5751 5754 5756 5758 5761 5763 5765 5767 5769 5771 5772 5774 5775 5777 5779 5780 5782 5783 5784 5785 5786 5787 5788 5789 5790 5791 5791 5792 5792 5793 5793 5793 5793 5793 5793
5698 5702 5706 5711 5713 5716 5720 5725 5728 5730 5733 5736 5739 5742 5744 5747 5749 5752 5754 5756 5758 5760 5762 5764 5765 5767 5768 5770 5771 5773 5774 5775 5776 5778 5778 5779 5780 5781 5782 5783 5783 5783 5784 5784 5784 5784 5784 5783 5783
5689 5693 5697 5702 5704 5707 5711 5716 5720 5722 5725 5729 5732 5734 5737 5739 5742 5745 5747 5749 5751 5753 5755 5756 5758 5759 5761 5762 5763 5765 5766 5767 5768 5769 5770 5771 5772 5773 5773 5774 5774 5774 5774 5775 5775 5774 5774 5774 5773
5682 5685 5688 5692 5695 5699 5702 5707 5711 5714 5717 5721 5724 5727 5729 5732 5735 5737 5739 5741 5743 5745 5747 5749 5750 5751 5753 5754 5755 5756 5758 5759 5760 5760 5761 5762 5763 5763 5764 5765 5765 5765 5765 5765 5764 5764 5763 5763 5762
5671 5675 5678 5683 5686 5689 5693 5698 5702 5705 5709 5712 5715 5718 5721 5724 5727 5729 5731 5733 5735 5737 5739 5740 5742 5743 5744 5745 5746 5747 5749 5750 5751 5751 5752 5753 5753 5754 5755 5755 5755 5755 5755 5754 5754 5753 5753 5752 5751
5662 5665 5669 5673 5676 5679 5683 5688 5693 5696 5700 5704 5707 5710 5713 5716 5718 5720 5723 5725 5727 5729 5730 5732 5733 5735 5736 5736 5737 5738 5739 5740 5741 5742 5743 5743 5744 5744 5745 5745 5745 5744 5744 5743 5743 5742 5741 5740 5738
5652 5656 5660 5663 5666 5669 5673 5678 5683 5687 5690 5694 5698 5701 5704 5706 5709 5712 5714 5716 5718 5720 5722 5723 5724 5725 5726 5727 5728 5728 5729 5730 5731 5731 5732 5733 5733 5734 5734 5734 5734 5733 5733 5732 5731 5730 5729 5728 5727
5642 5647 5649 5652 5655 5659 5663 5666 5674 5677 5681 5685 5689 5692 5694 5697 5700 5702 5705 5707 5709 5711 5712 5713 5714 5715 5716 5717 5718 5718 5719 5720 5720 5721 5722 5722 5723 5723 5723 5722 5722 5722 5721 5720 5719 5718 5716 5715 5714
5632 5636 5639 5642 5644 5648 5653 5655 5663 5667 5671 5675 5679 5682 5685 5688 5690 5693 5695 5697 5699 5701 5702 5703 5704 5705 5706 5706 5707 5708 5708 5709 5709 5710 5710 5711 5711 5711 5711 5711 5711 5710 5709 5708 5707 5705 5704 5702 5700
5621 5626 5629 5631 5633 5637 5644 5645 5650 5657 5662 5665 5669 5672 5675 5678 5680 5682 5685 5687 5688 5690 5691 5692 5693 5694 5694 5695 5695 5696 5697 5697 5698 5698 5699 5699 5699 5699 5699 5699 5698 5698 5697 5695 5693 5692 5690 5688 5687
5612 5616 5619 5621 5623 5628 5635 5635 5641 5647 5652 5655 5659 5662 5665 5668 5670 5672 5674 5676 5678 5679 5680 5680 5681 5681 5682 5683 5683 5684 5685 5685 5686 5686 5686 5687 5687 5687 5686 5686 5686 5685 5684 5682 5680 5679 5677 5675 5673
5602 5606 5610 5613 5616 5620 5623 5625 5632 5637 5641 5644 5648 5651 5654 5657 5659 5661 5663 5665 5667 5667 5668 5668 5668 5669 5670 5671 5671 5672 5672 5672 5673 5673 5673 5674 5674 5674 5674 5673 5673 5672 5671 5669 5667 5665 5663 5661 5659
5591 5595 5601 5603 5605 5609 5612 5617 5622 5626 5629 5634 5638 5641 5644 5647 5649 5651 5652 5654 5655 5655 5655 5656 5657 5658 5659 5659 5659 5659 5660 5660 5660 5660 5660 5661 5661 5662 5661 5661 5660 5659 5658 5656 5654 5652 5650 5647 5645
5582 5586 5590 5592 5595 5599 5604 5608 5612 5616 5619 5623 5627 5631 5634 5636 5638 5640 5642 5643 5643 5644 5644 5645 5646 5646 5647 5647 5647 5647 5647 5647 5647 5647 5648 5648 5649 5648 5648 5648 5647 5646 5644 5642 5640 5638 5636 5634 5632
5572 5576 5579 5583 5586 5591 5595 5601 5601 5605 5609 5612 5616 5620 5623 5626 5628 5629 5631 5632 5632 5633 5633 5634 5635 5635 5635 5635 5635 5635 5634 5634 5634 5635 5635 5635 5635 5635 5635 5635 5634 5633 5631 5629 5626 5624 5622 5620 5618
5561 5565 5570 5574 5578 5582 5587 5592 5592 5595 5599 5602 5606 5609 5613 5616 5618 5619 5620 5621 5622 5622 5622 5623 5623 5624 5624 5624 5624 5623 5623 5622 5623 5623 5623 5623 5623 5623 5622 5622 5621 5619 5618 5615 5613 5610 5608 5606 5604